N5CSU Weather Reports


Display with metric or nautical units.
time (UTC)temp
F
wind
direction
speed
MPH
gust
MPH
rain 1hr
in
rain 24hr
in
rain mn
in
humidity
%
barometer
mb
20210306045923 55 6 0.0 3.0 0.00 0.00 0.00 34 1023.9
20210306045325 55 351 0.0 0.0 0.00 0.00 0.00 34 1023.9
20210306044621 55 334 1.0 3.0 0.00 0.00 0.00 33 1023.9
20210306044118 55 1 3.0 5.0 0.00 0.00 0.00 32 1023.4
20210306043613 55 134 1.0 3.0 0.00 0.00 0.00 32 1023.4
20210306043105 56 351 0.0 0.0 0.00 0.00 0.00 32 1023.4
20210306042827 56 321 3.0 5.0 0.00 0.00 0.00 32 1023.4
20210306042409 56 347 0.0 0.0 0.00 0.00 0.00 34 1023.4
20210306041557 56 294 0.0 0.0 0.00 0.00 0.00 34 1023.4
20210306041054 57 284 0.0 0.0 0.00 0.00 0.00 33 1023.4
20210306040554 57 3 0.0 3.0 0.00 0.00 0.00 33 1023.1
20210306040053 57 352 0.0 3.0 0.00 0.00 0.00 33 1023.1
20210306035756 57 341 1.0 3.0 0.00 0.00 0.00 33 1022.7
20210306035128 57 18 0.0 0.0 0.00 0.00 0.00 33 1022.7
20210306034551 57 151 0.0 0.0 0.00 0.00 0.00 33 1022.7
20210306034049 57 19 0.0 0.0 0.00 0.00 0.00 32 1022.4
20210306033532 57 326 1.0 3.0 0.00 0.00 0.00 32 1022.7
20210306033048 57 199 1.0 3.0 0.00 0.00 0.00 32 1022.4
20210306032921 57 51 0.0 0.0 0.00 0.00 0.00 32 1022.4
20210306032533 57 100 0.0 0.0 0.00 0.00 0.00 32 1022.4
20210306031551 57 15 1.0 3.0 0.00 0.00 0.00 32 1022.4
20210306031022 58 335 0.0 0.0 0.00 0.00 0.00 32 1022.1
20210306030533 58 19 0.0 0.0 0.00 0.00 0.00 32 1022.4
20210306030157 58 5 0.0 0.0 0.00 0.00 0.00 31 1022.1
20210306025943 58 4 0.0 3.0 0.00 0.00 0.00 31 1022.1
20210306025444 58 18 0.0 0.0 0.00 0.00 0.00 31 1022.1
20210306024523 58 5 0.0 0.0 0.00 0.00 0.00 31 1021.7
20210306024012 58 325 0.0 0.0 0.00 0.00 0.00 31 1021.7
20210306023500 58 8 0.0 0.0 0.00 0.00 0.00 31 1021.7
20210306022952 58 46 0.0 0.0 0.00 0.00 0.00 30 1021.4
20210306022718 58 327 0.0 0.0 0.00 0.00 0.00 29 1021.4
20210306022124 58 331 0.0 0.0 0.00 0.00 0.00 29 1021.0
20210306021448 58 208 0.0 3.0 0.00 0.00 0.00 28 1021.4
20210306020938 58 11 0.0 0.0 0.00 0.00 0.00 27 1021.0
20210306020434 58 19 0.0 0.0 0.00 0.00 0.00 27 1021.0
20210306020122 58 347 0.0 0.0 0.00 0.00 0.00 27 1020.7
20210306015934 58 9 0.0 0.0 0.00 0.00 0.00 26 1020.7
20210306015128 58 1 0.0 0.0 0.00 0.00 0.00 27 1020.7
20210306014424 58 5 0.0 0.0 0.00 0.00 0.00 27 1020.7
20210306013918 58 342 0.0 0.0 0.00 0.00 0.00 28 1020.4
20210306013413 58 15 0.0 0.0 0.00 0.00 0.00 28 1020.4
20210306012938 58 2 0.0 0.0 0.00 0.00 0.00 28 1020.4
20210306012810 58 323 0.0 0.0 0.00 0.00 0.00 29 1019.7
20210306011916 57 144 0.0 0.0 0.00 0.00 0.00 30 1020.0
20210306011351 57 250 0.0 0.0 0.00 0.00 0.00 31 1020.0
20210306010855 57 75 0.0 0.0 0.00 0.00 0.00 31 1019.7
20210306010343 57 3 0.0 0.0 0.00 0.00 0.00 31 1019.7
20210306005946 57 359 0.0 0.0 0.00 0.00 0.00 31 1019.7
20210306005751 57 12 0.0 0.0 0.00 0.00 0.00 32 1019.7
20210306004903 57 3 0.0 0.0 0.00 0.00 0.00 32 1019.4
20210306004323 57 2 0.0 0.0 0.00 0.00 0.00 32 1019.4
20210306003818 57 1 0.0 0.0 0.00 0.00 0.00 33 1019.0
20210306003413 57 6 0.0 0.0 0.00 0.00 0.00 33 1019.4
20210306003156 57 357 0.0 0.0 0.00 0.00 0.00 34 1019.0
20210306002905 57 31 0.0 0.0 0.00 0.00 0.00 36 1018.7
20210306001821 57 5 0.0 0.0 0.00 0.00 0.00 36 1018.7
20210306001302 57 320 0.0 0.0 0.00 0.00 0.00 37 1018.7
20210306000804 57 317 0.0 0.0 0.00 0.00 0.00 37 1018.3
20210306000307 57 55 0.0 0.0 0.00 0.00 0.00 37 1018.7
20210305235951 57 72 0.0 0.0 0.00 0.00 0.00 39 1018.7
20210305235733 57 155 0.0 0.0 0.00 0.00 0.00 39 1018.0
20210305234748 57 262 0.0 0.0 0.00 0.00 0.00 39 1018.0
20210305234239 57 15 0.0 0.0 0.00 0.00 0.00 40 1018.3
20210305233756 57 16 0.0 0.0 0.00 0.00 0.00 42 1018.0
20210305233232 57 249 0.0 0.0 0.00 0.00 0.00 42 1018.3
20210305232918 57 170 0.0 0.0 0.00 0.00 0.00 41 1018.0
20210305231919 58 174 1.0 3.0 0.00 0.00 0.00 42 1018.0
20210305231216 58 343 0.0 3.0 0.00 0.00 0.00 43 1017.7
20210305230713 58 235 0.0 3.0 0.00 0.00 0.00 43 1017.7
20210305230209 59 287 0.0 3.0 0.00 0.00 0.00 42 1017.3
20210305225921 59 155 0.0 3.0 0.00 0.00 0.00 43 1017.3
20210305225644 59 18 1.0 3.0 0.00 0.00 0.00 42 1017.3
20210305224657 59 43 0.0 3.0 0.00 0.00 0.00 42 1016.6
20210305224154 60 8 0.0 0.0 0.00 0.00 0.00 41 1017.0
20210305223651 60 345 0.0 3.0 0.00 0.00 0.00 41 1016.6
20210305223144 61 13 0.0 0.0 0.00 0.00 0.00 41 1016.6
20210305222849 61 17 4.0 7.0 0.00 0.00 0.00 40 1016.6
20210305222521 62 52 1.0 3.0 0.00 0.00 0.00 39 1016.3
20210305221641 62 51 0.0 3.0 0.00 0.00 0.00 38 1016.3
20210305221134 63 264 0.0 0.0 0.00 0.00 0.00 34 1015.9
20210305220629 63 15 0.0 0.0 0.00 0.00 0.00 32 1015.9
20210305220126 64 6 3.0 5.0 0.00 0.00 0.00 31 1015.9
20210305215847 64 44 0.0 0.0 0.00 0.00 0.00 29 1015.5
20210305215310 64 354 1.0 3.0 0.00 0.00 0.00 29 1015.5
20210305214625 65 19 1.0 3.0 0.00 0.00 0.00 29 1015.2
20210305214120 65 5 3.0 5.0 0.00 0.00 0.00 28 1015.2
20210305213613 66 141 1.0 3.0 0.00 0.00 0.00 27 1015.2
20210305213126 66 195 2.0 5.0 0.00 0.00 0.00 27 1014.8
20210305212936 67 61 0.0 3.0 0.00 0.00 0.00 26 1014.8
20210305212549 67 359 0.0 0.0 0.00 0.00 0.00 26 1014.8
20210305211600 67 11 4.0 5.0 0.00 0.00 0.00 24 1014.8
20210305211059 67 99 0.0 0.0 0.00 0.00 0.00 24 1014.8
20210305210559 67 359 0.0 0.0 0.00 0.00 0.00 23 1014.5
20210305210049 66 7 0.0 3.0 0.00 0.00 0.00 22 1014.5
20210305205800 66 17 1.0 3.0 0.00 0.00 0.00 24 1014.2
20210305205306 66 43 1.0 3.0 0.00 0.00 0.00 25 1014.5
20210305204537 66 157 0.0 3.0 0.00 0.00 0.00 26 1014.5
20210305204037 66 314 0.0 0.0 0.00 0.00 0.00 25 1014.2
20210305203530 66 0 2.0 3.0 0.00 0.00 0.00 25 1014.2
20210305203040 66 184 2.0 3.0 0.00 0.00 0.00 25 1014.2
20210305202824 66 329 5.0 5.0 0.00 0.00 0.00 25 1014.2
20210305202233 67 14 0.0 0.0 0.00 0.00 0.00 25 1013.8
20210305201537 67 213 0.0 3.0 0.00 0.00 0.00 24 1013.8
20210305201025 68 167 1.0 3.0 0.00 0.00 0.00 26 1013.8
20210305200642 68 346 1.0 3.0 0.00 0.00 0.00 25 1014.2
20210305200336 69 266 1.0 3.0 0.00 0.00 0.00 23 1013.8
20210305195946 69 334 2.0 5.0 0.00 0.00 0.00 20 1013.8
20210305195251 69 120 0.0 3.0 0.00 0.00 0.00 20 1013.5
20210305194457 69 1 0.0 0.0 0.00 0.00 0.00 20 1013.8
20210305193953 69 336 1.0 3.0 0.00 0.00 0.00 20 1013.8
20210305193450 69 176 1.0 3.0 0.00 0.00 0.00 20 1013.8
20210305193122 69 3 2.0 3.0 0.00 0.00 0.00 20 1013.8
20210305192856 69 7 0.0 3.0 0.00 0.00 0.00 19 1013.8
20210305192048 69 8 0.0 0.0 0.00 0.00 0.00 18 1013.8
20210305191438 69 7 0.0 0.0 0.00 0.00 0.00 19 1014.2
20210305190934 68 58 0.0 0.0 0.00 0.00 0.00 19 1014.2
20210305190432 68 294 0.0 0.0 0.00 0.00 0.00 20 1013.8
20210305185928 67 147 0.0 3.0 0.00 0.00 0.00 21 1014.2
20210305185825 67 145 3.0 5.0 0.00 0.00 0.00 21 1014.2
20210305185043 67 9 0.0 3.0 0.00 0.00 0.00 21 1014.2
20210305184420 67 146 0.0 0.0 0.00 0.00 0.00 23 1014.2
20210305183914 66 15 0.0 0.0 0.00 0.00 0.00 23 1013.8
20210305183409 66 43 0.0 0.0 0.00 0.00 0.00 23 1013.8
20210305182907 66 7 4.0 5.0 0.00 0.00 0.00 23 1013.8
20210305182711 66 17 0.0 0.0 0.00 0.00 0.00 23 1013.5
20210305181922 66 16 0.0 0.0 0.00 0.00 0.00 23 1013.8
20210305181349 66 358 0.0 0.0 0.00 0.00 0.00 25 1013.8
20210305180849 66 8 0.0 0.0 0.00 0.00 0.00 25 1014.2
20210305180345 66 168 0.0 3.0 0.00 0.00 0.00 23 1014.2
20210305180040 65 155 0.0 0.0 0.00 0.00 0.00 24 1014.2
20210305175853 65 355 0.0 0.0 0.00 0.00 0.00 25 1014.2
20210305175214 65 15 0.0 3.0 0.00 0.00 0.00 25 1014.2
20210305174335 65 130 0.0 3.0 0.00 0.00 0.00 29 1014.2
20210305173829 65 117 0.0 0.0 0.00 0.00 0.00 29 1013.8
20210305173319 65 187 0.0 0.0 0.00 0.00 0.00 28 1013.8
20210305172924 64 145 0.0 0.0 0.00 0.00 0.00 27 1014.2
20210305172717 64 128 0.0 0.0 0.00 0.00 0.00 26 1014.5
20210305171821 64 155 0.0 0.0 0.00 0.00 0.00 29 1014.2
20210305171326 63 151 0.0 0.0 0.00 0.00 0.00 31 1014.2
20210305170808 63 157 4.0 7.0 0.00 0.00 0.00 29 1014.5
20210305170307 62 120 0.0 0.0 0.00 0.00 0.00 30 1014.5
20210305170045 62 164 0.0 3.0 0.00 0.00 0.00 30 1014.5
20210305165839 61 187 0.0 0.0 0.00 0.00 0.00 32 1014.5
20210305164840 61 127 2.0 3.0 0.00 0.00 0.00 34 1014.5
20210305164356 61 127 0.0 0.0 0.00 0.00 0.00 35 1014.8
20210305164152 61 132 0.0 0.0 0.00 0.00 0.00 35 1014.5
20210305163942 61 144 0.0 3.0 0.00 0.00 0.00 36 1014.5
20210305163439 61 133 0.0 0.0 0.00 0.00 0.00 35 1014.5
20210305163101 60 152 1.0 3.0 0.00 0.00 0.00 36 1014.2
20210305161835 60 179 0.0 0.0 0.00 0.00 0.00 35 1013.8
20210305161226 60 149 3.0 5.0 0.00 0.00 0.00 33 1014.2
20210305160718 59 132 3.0 5.0 0.00 0.00 0.00 35 1014.2
20210305160215 59 98 2.0 3.0 0.00 0.00 0.00 40 1014.2
20210305155824 59 133 4.0 5.0 0.00 0.00 0.00 41 1014.2
20210305155426 59 127 0.0 0.0 0.00 0.00 0.00 41 1014.2
20210305154710 59 153 1.0 3.0 0.00 0.00 0.00 42 1014.5
20210305154206 59 156 0.0 0.0 0.00 0.00 0.00 41 1014.2
20210305153700 59 161 2.0 3.0 0.00 0.00 0.00 40 1014.2
20210305153219 58 136 0.0 0.0 0.00 0.00 0.00 42 1014.2
20210305153053 58 141 1.0 3.0 0.00 0.00 0.00 43 1013.8
20210305152825 58 134 0.0 0.0 0.00 0.00 0.00 43 1014.2
20210305151644 58 156 0.0 0.0 0.00 0.00 0.00 43 1014.2
20210305151139 58 171 0.0 0.0 0.00 0.00 0.00 45 1014.2
20210305150636 58 233 0.0 0.0 0.00 0.00 0.00 44 1013.8
20210305150149 58 148 1.0 3.0 0.00 0.00 0.00 44 1013.8
20210305145914 57 123 0.0 0.0 0.00 0.00 0.00 44 1013.8
20210305145638 57 139 0.0 0.0 0.00 0.00 0.00 44 1014.2
20210305144643 57 149 0.0 0.0 0.00 0.00 0.00 44 1013.8
20210305144129 57 154 1.0 3.0 0.00 0.00 0.00 44 1013.8
20210305143615 57 198 0.0 3.0 0.00 0.00 0.00 45 1013.5
20210305143137 56 135 1.0 3.0 0.00 0.00 0.00 46 1013.5
20210305142817 56 147 1.0 3.0 0.00 0.00 0.00 46 1013.8
20210305142256 56 136 2.0 3.0 0.00 0.00 0.00 46 1013.5
20210305141608 56 149 1.0 3.0 0.00 0.00 0.00 46 1013.5
20210305141051 56 130 0.0 3.0 0.00 0.00 0.00 46 1013.8
20210305140552 56 117 0.0 0.0 0.00 0.00 0.00 46 1013.5
20210305140315 56 145 0.0 3.0 0.00 0.00 0.00 45 1013.5
20210305140059 55 149 0.0 0.0 0.00 0.00 0.00 45 1013.5
20210305135521 55 177 0.0 0.0 0.00 0.00 0.00 45 1013.5
20210305134551 55 136 0.0 0.0 0.00 0.00 0.00 45 1013.8
20210305134038 55 49 0.0 0.0 0.00 0.00 0.00 44 1013.8
20210305133532 55 151 0.0 0.0 0.00 0.00 0.00 44 1013.5
20210305133024 55 155 0.0 0.0 0.00 0.00 0.00 44 1013.5
20210305132853 55 162 0.0 0.0 0.00 0.00 0.00 44 1013.5
20210305132238 55 145 0.0 0.0 0.00 0.00 0.00 44 1013.2
20210305131519 55 275 0.0 0.0 0.00 0.00 0.00 43 1013.2
20210305131027 55 155 0.0 0.0 0.00 0.00 0.00 43 1013.2
20210305130540 55 154 1.0 3.0 0.00 0.00 0.00 42 1013.2
20210305130205 55 150 0.0 3.0 0.00 0.00 0.00 42 1013.5
20210305130011 56 145 0.0 0.0 0.00 0.00 0.00 41 1013.2
20210305125243 56 146 0.0 0.0 0.00 0.00 0.00 41 1013.2
20210305124455 56 99 0.0 0.0 0.00 0.00 0.00 42 1013.2
20210305123951 56 159 0.0 3.0 0.00 0.00 0.00 42 1013.2
20210305123604 57 126 4.0 5.0 0.00 0.00 0.00 42 1013.2
20210305123326 57 197 0.0 0.0 0.00 0.00 0.00 42 1013.2
20210305123133 57 157 0.0 0.0 0.00 0.00 0.00 42 1013.2
20210305122322 57 114 0.0 0.0 0.00 0.00 0.00 42 1013.2
20210305121434 57 335 0.0 0.0 0.00 0.00 0.00 43 1012.8
20210305120936 57 176 0.0 0.0 0.00 0.00 0.00 42 1013.2
20210305120425 57 132 0.0 0.0 0.00 0.00 0.00 42 1013.2
20210305115844 57 134 3.0 5.0 0.00 0.00 0.00 42 1012.8
20210305115234 57 143 4.0 5.0 0.00 0.00 0.00 41 1012.8
20210305114406 57 141 0.0 0.0 0.00 0.00 0.00 41 1012.8
20210305113908 57 136 1.0 5.0 0.00 0.00 0.00 41 1013.2
20210305113401 57 161 2.0 3.0 0.00 0.00 0.00 40 1012.8
20210305113019 57 140 0.0 0.0 0.00 0.00 0.00 38 1013.2
20210305112751 57 131 2.0 5.0 0.00 0.00 0.00 38 1013.2
20210305112021 57 111 0.0 0.0 0.00 0.00 0.00 38 1013.2
20210305111352 57 16 0.0 0.0 0.00 0.00 0.00 37 1013.2
20210305110840 57 140 2.0 3.0 0.00 0.00 0.00 36 1013.2
20210305110333 57 152 0.0 0.0 0.00 0.00 0.00 36 1013.2
20210305110029 57 104 0.0 3.0 0.00 0.00 0.00 36 1012.8
20210305105829 57 185 0.0 0.0 0.00 0.00 0.00 34 1012.8
20210305104918 57 185 0.0 0.0 0.00 0.00 0.00 34 1012.8
20210305104321 57 179 0.0 3.0 0.00 0.00 0.00 34 1012.8
20210305103820 57 192 2.0 3.0 0.00 0.00 0.00 34 1012.8
20210305103316 57 188 1.0 3.0 0.00 0.00 0.00 33 1012.8
20210305102825 57 166 2.0 5.0 0.00 0.00 0.00 33 1013.2
20210305102533 57 126 0.0 0.0 0.00 0.00 0.00 31 1013.2
20210305101853 57 275 0.0 0.0 0.00 0.00 0.00 31 1013.2
20210305101304 57 162 0.0 3.0 0.00 0.00 0.00 30 1012.8
20210305100801 57 142 0.0 3.0 0.00 0.00 0.00 29 1012.8
20210305100257 57 130 0.0 0.0 0.00 0.00 0.00 28 1013.2
20210305100021 57 138 3.0 5.0 0.00 0.00 0.00 28 1013.2
20210305095717 57 126 0.0 0.0 0.00 0.00 0.00 27 1013.2
20210305094820 57 148 0.0 0.0 0.00 0.00 0.00 26 1013.2
20210305094245 57 147 0.0 0.0 0.00 0.00 0.00 26 1013.2
20210305093743 57 144 0.0 0.0 0.00 0.00 0.00 25 1012.8
20210305093239 57 188 0.0 0.0 0.00 0.00 0.00 25 1013.2
20210305092836 58 149 4.0 10.0 0.00 0.00 0.00 25 1013.2
20210305092653 58 69 0.0 0.0 0.00 0.00 0.00 25 1013.2
20210305091729 58 126 0.0 0.0 0.00 0.00 0.00 25 1013.2
20210305091240 58 197 0.0 0.0 0.00 0.00 0.00 25 1013.2
20210305090719 58 145 0.0 3.0 0.00 0.00 0.00 24 1013.2
20210305090214 58 139 1.0 3.0 0.00 0.00 0.00 24 1013.2
20210305085813 58 172 1.0 3.0 0.00 0.00 0.00 24 1013.2
20210305085431 58 322 0.0 0.0 0.00 0.00 0.00 24 1013.2
20210305084725 58 178 0.0 3.0 0.00 0.00 0.00 24 1013.2
20210305084153 58 155 3.0 5.0 0.00 0.00 0.00 23 1013.2
20210305083653 59 236 0.0 3.0 0.00 0.00 0.00 23 1013.5
20210305083146 59 109 1.0 3.0 0.00 0.00 0.00 23 1013.5
20210305083045 59 244 0.0 0.0 0.00 0.00 0.00 23 1013.5
20210305082703 59 147 0.0 3.0 0.00 0.00 0.00 23 1013.5
20210305081654 59 115 3.0 5.0 0.00 0.00 0.00 23 1013.5
20210305081131 59 132 2.0 3.0 0.00 0.00 0.00 22 1013.5
20210305080626 59 150 1.0 3.0 0.00 0.00 0.00 22 1013.5
20210305080126 59 146 3.0 5.0 0.00 0.00 0.00 22 1013.8
20210305075938 59 146 4.0 5.0 0.00 0.00 0.00 21 1013.5
20210305075803 59 180 2.0 3.0 0.00 0.00 0.00 21 1013.8
20210305074622 59 153 2.0 3.0 0.00 0.00 0.00 21 1013.8
20210305074111 60 252 0.0 3.0 0.00 0.00 0.00 21 1013.8
20210305073606 60 118 1.0 3.0 0.00 0.00 0.00 21 1013.8
20210305073113 60 156 2.0 3.0 0.00 0.00 0.00 21 1013.8
20210305072833 60 96 0.0 3.0 0.00 0.00 0.00 21 1013.5
20210305072403 60 143 1.0 3.0 0.00 0.00 0.00 21 1013.8
20210305071556 60 196 1.0 3.0 0.00 0.00 0.00 20 1013.8
20210305071056 60 161 2.0 3.0 0.00 0.00 0.00 20 1013.8
20210305070603 60 165 0.0 3.0 0.00 0.00 0.00 20 1014.2
20210305070147 60 132 3.0 3.0 0.00 0.00 0.00 20 1014.2
20210305065838 60 147 1.0 3.0 0.00 0.00 0.00 21 1014.2
20210305065300 60 127 0.0 3.0 0.00 0.00 0.00 20 1013.8
20210305064556 60 132 0.0 0.0 0.00 0.00 0.00 20 1014.2
20210305064044 60 129 0.0 0.0 0.00 0.00 0.00 20 1014.2
20210305063536 60 150 0.0 0.0 0.00 0.00 0.00 20 1014.5
20210305063137 60 240 0.0 0.0 0.00 0.00 0.00 20 1014.2
20210305062941 60 115 0.0 0.0 0.00 0.00 0.00 19 1014.5
20210305062545 60 112 0.0 3.0 0.00 0.00 0.00 20 1014.5
20210305061529 60 167 1.0 3.0 0.00 0.00 0.00 20 1014.5
20210305061026 60 102 1.0 3.0 0.00 0.00 0.00 19 1014.2
20210305060525 60 180 1.0 3.0 0.00 0.00 0.00 20 1014.5
20210305060032 60 156 0.0 0.0 0.00 0.00 0.00 20 1014.8
20210305055822 60 110 0.0 0.0 0.00 0.00 0.00 20 1014.5
20210305055140 60 147 4.0 5.0 0.00 0.00 0.00 20 1014.2
20210305054518 60 133 0.0 0.0 0.00 0.00 0.00 20 1014.2
20210305053956 60 156 0.0 0.0 0.00 0.00 0.00 20 1014.5
20210305053456 61 177 0.0 0.0 0.00 0.00 0.00 20 1014.5
20210305052948 61 77 0.0 0.0 0.00 0.00 0.00 19 1014.5
20210305052759 61 156 0.0 0.0 0.00 0.00 0.00 20 1014.2
20210305052047 61 152 0.0 0.0 0.00 0.00 0.00 19 1014.8
20210305051435 61 154 0.0 0.0 0.00 0.00 0.00 19 1014.8
20210305050929 61 179 0.0 0.0 0.00 0.00 0.00 19 1014.5
20210305050431 62 113 0.0 0.0 0.00 0.00 0.00 18 1014.8